Regional Weather Roundup
Issued by NWS

Home | Current Version | Previous Version | Graphics & Text | Print | Product List | Glossary On
Versions: 1 2 3 4 5 6 7 8 9 10 11 12 13 14 15 16 17 18 19 20 21 22 23 24 25 26 27 28 29 30 31 32 33 34 35 36 37 38 39 40 41 42 43 44 45 46 47 48 49 50
000
ASUS43 KMPX 270101
RWRMN
WEATHER ROUNDUP FOR MINNESOTA
NATIONAL WEATHER SERVICE TWIN CITIES/CHANHASSEN MN
700 PM CST MON JAN 26 2015


NOTE: "FAIR" INDICATES FEW OR NO CLOUDS BELOW 12,000 FEET WITH NO
SIGNIFICANT WEATHER AND/OR OBSTRUCTIONS TO VISIBILITY. N/A MEANS
CURRENT SKY AND/OR WEATHER CONDITIONS ARE NOT AVAILABLE.

MNZ060>063-068>070-270200-
   Twin Cities Metro

CITY           SKY/WX    TMP DP  RH WIND       PRES   REMARKS
TWIN CITIES    CLOUDY    39  29  67 NW12      29.87R
ST PAUL        CLOUDY    39  30  70 NW10      29.87R
CRYSTAL        CLOUDY    40  30  67 NW10      29.86R
LAKEVILLE      CLOUDY    37  30  75 W7        29.87R
EDEN PRAIRIE   CLOUDY    39  29  67 NW10      29.87R
SOUTH ST PAUL  CLOUDY    40  30  68 N8        29.86R
LAKE ELMO      CLOUDY    39  32  75 N8        29.87R
$$
MNZ001>005-007-008-013>017-022>024-027-028-270200-
   Northwest Minnesota

CITY           SKY/WX    TMP DP  RH WIND       PRES   REMARKS
BEMIDJI        CLOUDY    30  25  83 N7        29.91R WCI  23
HALLOCK        CLOUDY    27  25  93 N8        29.97R WCI  18
ROSEAU         CLOUDY    27  21  80 N6        29.95R WCI  20
WARROAD        CLOUDY    25  21  86 N6        29.94S WCI  18
THIEF RVR FALL CLOUDY    28  25  86 N8        29.96R WCI  20
CROOKSTON      CLOUDY    28  25  86 N8        30.00R WCI  20
FOSSTON        CLOUDY    27  25  93 NW8       29.94R WCI  18
DETROIT LAKES  CLOUDY    30  28  93 N12       29.94S WCI  21
MOORHEAD       PTCLDY    30  30 100 N15       30.00R WCI  19
PARK RAPIDS    CLOUDY    31  26  82 N12       29.90R WCI  22
MAHNOMEN       CLOUDY    29  26  90 N9        29.92S WCI  21
$$
MNZ006-009>011-018-025>026-270200-
   North Central Minnesota

CITY           SKY/WX    TMP DP  RH WIND       PRES   REMARKS
BAUDETTE       CLOUDY    26  21  81 NW8       29.91R WCI  18
FLAG ISLAND    CLOUDY    25  21  86 NW9       29.94R WCI  15
INTL FALLS     CLOUDY    27  22  81 NW8       29.90R WCI  19
WASKISH        CLOUDY    28  25  86 NW6       29.93R WCI  22
BIG FORK       CLOUDY    30  25  80 NW5       29.90R WCI  25
LONGVILLE      CLOUDY    30  27  86 NW6       29.90R WCI  24
GRAND RAPIDS   CLOUDY    30  25  80 NW12      29.87R WCI  21
CRANE LAKE     CLOUDY    25  21  86 CALM      29.91R
ORR            CLOUDY    27  21  80 CALM      29.86R
COOK           CLOUDY    27  23  86 NW5       29.88R WCI  21
WALKER         CLOUDY    31  25  79 N8        29.90R WCI  23
$$
MNZ012-019>021-037-270200-
   Northeast Minnesota

CITY           SKY/WX    TMP DP  RH WIND       PRES   REMARKS
DULUTH         CLOUDY    30  25  81 N12G20    29.84R WCI  20
ELY            CLOUDY    25  21  86 N6        29.86R WCI  18
HIBBING        CLOUDY    29  22  75 N14       29.86R WCI  18
EVELETH        CLOUDY    28  27  93 N8        29.87R WCI  20
DULUTH HARBOR  CLOUDY    30  27  86 CALM      29.88R
TWO HARBORS    CLOUDY    28  25  86 CALM      29.83R
SILVER BAY     CLOUDY    27  25  93 CALM      29.84R
GRAND MARAIS     N/A     26  21  81 N5        29.88R WCI  20
G MARAIS ARPRT FLURRIES  19  16  86 N3        29.82R
$$
MNZ029>031-032-039>041-046>048-054>057-064-270200-
   West Central Minnesota

CITY           SKY/WX    TMP DP  RH WIND       PRES   REMARKS
FERGUS FALLS   MOCLDY    28  25  86 N12G18    29.98R WCI  18
WHEATON        CLEAR     30  28  93 NW7       29.99R WCI  23
MORRIS         CLEAR     34  30  86 N10       29.94R WCI  26
ALEXANDRIA     CLOUDY    31  26  82 N14       29.92R WCI  21
ELBOW LAKE     MOCLDY    31  28  90 N12       29.94R WCI  22
WADENA         CLOUDY    30  27  86 NW8       29.92R WCI  23
GLENWOOD       CLOUDY    32  28  86 N13       29.93R WCI  22
APPLETON       PTCLDY    36  32  87 NW10      29.95S
BENSON         CLEAR     34  30  86 N10       29.94S WCI  26
ORTONVILLE     MOCLDY    37  30  75 NW9       29.96R
MADISON        PTCLDY    39  36  87 NW8       29.96R
WILLMAR        MOCLDY    37  30  75 NW16      29.94R
$$
MNZ033>034-036-042>043-049>051-058-059-270200-
   Central Minnesota

CITY           SKY/WX    TMP DP  RH WIND       PRES   REMARKS
ST CLOUD       CLOUDY    36  29  75 NW12      29.89R
SAUK CENTRE    CLOUDY    32  28  85 NW15      29.93R WCI  22
PAYNESVILLE    CLOUDY    32  28  84 W9        29.92R WCI  24
AITKIN         CLOUDY    36  28  75 NW12      29.87R
PINE RIVER     CLOUDY    32  27  80 N12       29.94R WCI  23
BRAINERD       CLOUDY    34  27  75 N15       29.90R WCI  24
STAPLES        CLOUDY    32  28  86 NW9       29.91R WCI  24
LONG PRAIRIE   CLOUDY    32  28  86 NW10      29.92R WCI  24
LITTLE FALLS   CLOUDY    36  28  75 NW6       29.89R
LITCHFIELD     CLOUDY    37  32  81 NW13G21   29.91R
BUFFALO        CLOUDY    37  30  75 W8        29.89R
MAPLE LAKE     CLOUDY    37  32  82 NW9       29.90R
$$
MNZ037-044-045-052-053-270200-
   East Central Minnesota

CITY           SKY/WX    TMP DP  RH WIND       PRES   REMARKS
PRINCETON      CLOUDY    39  30  70 NW7       29.88R
MORA           CLOUDY    36  28  75 N7G16     29.87R
CAMBRIDGE      CLOUDY    39  28  65 NW7       29.85R
RUSH CITY      CLOUDY    37  30  76 NW6       29.86R
MOOSE LAKE     CLOUDY    34  30  86 N6        29.84R WCI  29
HINCKLEY       CLOUDY    36  32  87 N14G24    29.86R
CLOQUET        CLOUDY    30  27  86 N12G17    29.85R WCI  21
MCGREGOR       CLOUDY    34  28  80 NW13      29.87R WCI  25
$$
MNZ071>073-080-081-089-090-097-098-270200-
   Southwest Minnesota

CITY           SKY/WX    TMP DP  RH WIND       PRES   REMARKS
MONTEVIDEO     CLOUDY    37  34  87 N8        29.96R
GRANITE FALLS  CLOUDY    37  32  84 W10       29.97R
CANBY          CLOUDY    38  33  81 NW13      29.98R
MARSHALL       CLOUDY    37  30  75 NW13      29.97R
REDWOOD FALLS  CLOUDY    39  32  76 NW15G21   29.94R
OLIVIA         PTCLDY    34  32  93 NW13G20   29.93R WCI  25
PIPESTONE      CLEAR     37  34  87 N6        29.96R
WINDOM         CLOUDY    37  34  87 NW9       29.94R
WORTHINGTON    MOCLDY    34  30  86 NW10      29.96R WCI  26
JACKSON        CLOUDY    37  32  81 NW13      29.94R
TRACY          CLOUDY    38  34  85 NW12      29.96R
SLAYTON        PTCLDY    35  32  89 CALM      29.96R
$$
MNZ065>067-074>077-082>085-091>093-270200-
   South Central Minnesota

CITY           SKY/WX    TMP DP  RH WIND       PRES   REMARKS
MANKATO        CLOUDY    37  30  75 NW9       29.89R
NEW ULM        PTCLDY    37  30  75 NW15      29.91R
ST JAMES       MOCLDY    39  34  81 NW13      29.94R
FAIRMONT       CLOUDY    37  30  75 NW10      29.92R
GLENCOE        CLOUDY    38  33  80 NW13      29.89R
FARIBAULT      CLOUDY    37  32  81 W10       29.87R
OWATONNA       CLOUDY    37  30  75 NW12      29.87R
WASECA         CLOUDY    36  32  87 NW13      29.90R
ALBERT LEA     CLOUDY    37  34  87 NW10G17   29.88R
$$
MNZ078>079-086>088-094>096-270200-
   Southeast Minnesota

CITY           SKY/WX    TMP DP  RH WIND       PRES   REMARKS
ROCHESTER      CLOUDY    36  32  85 NW14      29.84R
RED WING       CLOUDY    39  32  75 N7        29.85R
STANTON        CLOUDY    37  32  81 W8        29.85R
DODGE CENTER   CLOUDY    37  34  87 NW12      29.84R
WINONA         CLOUDY    30  28  93 CALM      29.85S
AUSTIN         CLOUDY    37  34  87 NW15      29.85R
PRESTON        CLOUDY    36  32  85 NW12      29.84R
$$
ABBREVIATIONS USED IN REMARKS
   TC - TEMPERATURES IN CELSIUS
  WCI - WIND CHILL INDEX
   HX - HEAT INDEX
  VSB - VISIBILITY
$$



USA.gov is the U.S. government's official web portal to all federal, state and local government web resources and services.